Kenansville, NC

7:45 PM EDT on July 27, 2017 (GMT -0400)
Duplin County

Weather History for KDPL - April, 2013

Change the Weather History Date:

Monday, April 8, 2013

  Actual Average (KOAJ) Record (KOAJ)
Temperature  
Mean Temperature 62 °F -  
Max Temperature 78 °F 70 °F 89 °F (2001)
Min Temperature 45 °F 46 °F 21 °F (2007)
Degree Days  
Heating Degree Days 4    
Growing Degree Days 12 (Base 50)    
Moisture  
Dew Point 51 °F    
Average Humidity 67    
Maximum Humidity 97    
Minimum Humidity 34    
Precipitation  
Precipitation 0.00 in - - ()
Sea Level Pressure  
Sea Level Pressure 30.16 in    
Wind  
Wind Speed 1 mph (SW)    
Max Wind Speed 10 mph    
Max Gust Speed 16 mph    
Visibility 9 miles    
Events      
Averages and records for this station are not official NWS values.
T = Trace of Precipitation, MM = Missing Value Source: NWS Daily Summary

Daily Weather History Graph

Daily Weather History Graph

Search for Another Location

Airport or City:

Trip Planner

Search our weather history database for the weather conditions in past years. The results will help you decide how hot, cold, wet, or windy it might be!

Date:

Astronomy

Apr. 08, 2013 Rise Set
Actual Time 6:48 AM EDT 7:39 PM EDT
Civil Twilight 6:23 AM EDT 8:04 PM EDT
Nautical Twilight 5:52 AM EDT 8:35 PM EDT
Astronomical Twilight 5:21 AM EDT 9:06 PM EDT
Moon 5:34 AM EDT (4/8) 6:13 PM EDT (4/8)
Length of Visible Light 13h 41m
Length of Day
12h 50m
Waning Crescent, 3% of the Moon is Illuminated
Apr 8
Waning Crescent
Apr 10
New
Apr 18
First Quarter
Apr 25
Full
May 2
Last Quarter

Hourly Weather History & Observations

Time (EDT) Temp. Dew Point Humidity Pressure Visibility Wind Dir Wind Speed Gust Speed Precip Events Conditions
12:15 AM 54.9 °F 50.0 °F 84% 30.18 in 10.0 mi Calm Calm - N/A   Clear
12:55 AM 54.0 °F 50.0 °F 86% 30.17 in 10.0 mi Calm Calm - N/A   Clear
1:15 AM 52.9 °F 49.5 °F 88% 30.17 in 10.0 mi Calm Calm - N/A   Clear
1:35 AM 52.0 °F 49.3 °F 90% 30.17 in 10.0 mi Calm Calm - N/A   Clear
1:55 AM 51.6 °F 49.5 °F 92% 30.16 in 10.0 mi Calm Calm - N/A   Clear
2:15 AM 52.0 °F 49.5 °F 91% 30.16 in 10.0 mi Calm Calm - N/A   Clear
2:35 AM 52.2 °F 50.2 °F 93% 30.15 in 10.0 mi Calm Calm - N/A   Clear
2:55 AM 51.4 °F 49.5 °F 93% 30.15 in 10.0 mi Calm Calm - N/A   Clear
3:15 AM 50.4 °F 49.1 °F 95% 30.15 in 7.0 mi Calm Calm - N/A   Clear
3:35 AM 49.3 °F 48.0 °F 95% 30.15 in 7.0 mi Calm Calm - N/A   Clear
3:55 AM 49.1 °F 47.8 °F 95% 30.15 in 7.0 mi Calm Calm - N/A   Clear
4:15 AM 49.3 °F 48.4 °F 97% 30.15 in 5.0 mi Calm Calm - N/A   Clear
4:35 AM 48.9 °F 48.0 °F 97% 30.15 in 5.0 mi Calm Calm - N/A   Clear
4:55 AM 48.4 °F 47.3 °F 96% 30.15 in 5.0 mi Calm Calm - N/A   Clear
5:15 AM 47.8 °F 46.9 °F 97% 30.15 in 5.0 mi Calm Calm - N/A   Clear
5:35 AM 47.8 °F 46.9 °F 97% 30.16 in 5.0 mi Calm Calm - N/A   Clear
5:55 AM 47.3 °F 46.6 °F 97% 30.16 in 5.0 mi Calm Calm - N/A   Clear
6:15 AM 47.1 °F 46.4 °F 97% 30.17 in 4.0 mi Calm Calm - N/A   Clear
6:35 AM 46.4 °F 45.7 °F 97% 30.18 in 4.0 mi Calm Calm - N/A   Clear
6:55 AM 45.5 °F 44.8 °F 97% 30.18 in 5.0 mi Calm Calm - N/A   Clear
7:15 AM 46.6 °F 45.7 °F 97% 30.19 in 2.5 mi Calm Calm - N/A   Clear
7:35 AM 47.7 °F 46.8 °F 97% 30.20 in 5.0 mi Calm Calm - N/A   Clear
7:55 AM 51.4 °F 50.4 °F 96% 30.21 in 5.0 mi Calm Calm - N/A   Clear
8:15 AM 53.6 °F 52.0 °F 94% 30.21 in 5.0 mi Calm Calm - N/A   Clear
8:35 AM 56.5 °F 54.7 °F 94% 30.22 in 7.0 mi Calm Calm - N/A   Clear
8:55 AM 59.4 °F 56.7 °F 91% 30.22 in 10.0 mi Calm Calm - N/A   Clear
9:15 AM 62.2 °F 57.4 °F 84% 30.22 in 10.0 mi SW 4.6 mph - N/A   Clear
9:35 AM 64.9 °F 57.0 °F 75% 30.22 in 10.0 mi SW 8.1 mph - N/A   Clear
9:55 AM 67.3 °F 56.5 °F 68% 30.21 in 10.0 mi SW 5.8 mph - N/A   Clear
10:15 AM 68.5 °F 56.1 °F 64% 30.21 in 10.0 mi SW 8.1 mph - N/A   Clear
10:35 AM 70.9 °F 55.4 °F 58% 30.21 in 10.0 mi SW 8.1 mph - N/A   Mostly Cloudy
10:55 AM 71.6 °F 54.5 °F 55% 30.21 in 10.0 mi WSW 10.4 mph - N/A   Scattered Clouds
11:15 AM 72.1 °F 53.6 °F 52% 30.20 in 10.0 mi SW 6.9 mph - N/A   Clear
11:35 AM 73.4 °F 52.3 °F 48% 30.20 in 10.0 mi WSW 10.4 mph - N/A   Clear
11:55 AM 73.9 °F 52.5 °F 47% 30.19 in 10.0 mi Calm Calm - N/A   Clear
12:15 PM 75.2 °F 51.3 °F 43% 30.19 in 10.0 mi Calm Calm - N/A   Clear
12:35 PM 75.7 °F 50.5 °F 41% 30.18 in 10.0 mi WSW 6.9 mph - N/A   Scattered Clouds
12:55 PM 76.1 °F 49.5 °F 39% 30.18 in 10.0 mi WSW 5.8 mph - N/A   Scattered Clouds
1:15 PM 75.9 °F 50.5 °F 41% 30.17 in 10.0 mi SW 6.9 mph - N/A   Scattered Clouds
1:35 PM 77.2 °F 50.4 °F 39% 30.16 in 10.0 mi Calm Calm - N/A   Scattered Clouds
1:55 PM 77.2 °F 50.0 °F 38% 30.15 in 10.0 mi SW 6.9 mph - N/A   Scattered Clouds
2:15 PM 77.7 °F 49.5 °F 37% 30.14 in 10.0 mi Calm Calm - N/A   Scattered Clouds
2:35 PM 78.6 °F 48.6 °F 35% 30.13 in 10.0 mi WSW 9.2 mph 16.1 mph N/A   Scattered Clouds
2:55 PM 77.4 °F 49.3 °F 37% 30.13 in 10.0 mi West 5.8 mph - N/A   Scattered Clouds
3:15 PM 77.9 °F 48.4 °F 35% 30.12 in 10.0 mi SW 4.6 mph 16.1 mph N/A   Scattered Clouds
3:35 PM 77.4 °F 48.7 °F 36% 30.11 in 10.0 mi Calm Calm - N/A   Scattered Clouds
3:55 PM 78.3 °F 48.4 °F 35% 30.11 in 10.0 mi SSW 6.9 mph - N/A   Mostly Cloudy
4:15 PM 77.9 °F 47.8 °F 35% 30.10 in 10.0 mi SW 10.4 mph 16.1 mph N/A   Mostly Cloudy
4:35 PM 78.6 °F 47.8 °F 34% 30.10 in 10.0 mi Calm Calm - N/A   Scattered Clouds
4:55 PM 78.8 °F 47.8 °F 34% 30.10 in 10.0 mi SSW 3.5 mph - N/A   Scattered Clouds
5:15 PM 77.5 °F 48.4 °F 36% 30.10 in 10.0 mi Calm Calm - N/A   Scattered Clouds
5:35 PM 77.2 °F 49.1 °F 37% 30.10 in 10.0 mi Calm Calm - N/A   Scattered Clouds
5:55 PM 77.2 °F 49.3 °F 37% 30.10 in 10.0 mi Calm Calm - N/A   Scattered Clouds
6:15 PM 76.3 °F 50.7 °F 41% 30.10 in 10.0 mi Calm Calm - N/A   Scattered Clouds
6:35 PM 76.1 °F 51.3 °F 42% 30.10 in 10.0 mi Calm Calm - N/A   Clear
6:55 PM 75.0 °F 51.4 °F 44% 30.11 in 10.0 mi Calm Calm - N/A   Scattered Clouds
7:15 PM 73.4 °F 50.5 °F 45% 30.11 in 10.0 mi Calm Calm - N/A   Clear
7:35 PM 72.3 °F 50.0 °F 45% 30.12 in 10.0 mi Calm Calm - N/A   Clear
7:55 PM 70.7 °F 50.4 °F 48% 30.13 in 10.0 mi Calm Calm - N/A   Clear
8:15 PM 69.4 °F 51.8 °F 53% 30.13 in 10.0 mi Calm Calm - N/A   Clear
8:35 PM 68.4 °F 52.3 °F 57% 30.14 in 10.0 mi Calm Calm - N/A   Clear
8:55 PM 67.6 °F 52.7 °F 59% 30.14 in 10.0 mi Calm Calm - N/A   Clear
9:15 PM 67.1 °F 53.6 °F 62% 30.15 in 10.0 mi Calm Calm - N/A   Clear
9:35 PM 66.4 °F 54.3 °F 65% 30.16 in 10.0 mi Calm Calm - N/A   Clear
9:55 PM 65.1 °F 54.5 °F 68% 30.16 in 10.0 mi Calm Calm - N/A   Clear
10:15 PM 64.6 °F 54.7 °F 70% 30.16 in 10.0 mi Calm Calm - N/A   Clear
10:35 PM 64.0 °F 54.9 °F 72% 30.17 in 10.0 mi Calm Calm - N/A   Clear
10:55 PM 63.1 °F 55.0 °F 75% 30.17 in 10.0 mi Calm Calm - N/A   Clear
11:15 PM 62.4 °F 55.0 °F 77% 30.16 in 10.0 mi Calm Calm - N/A   Clear
11:55 PM 61.2 °F 55.0 °F 80% 30.17 in 10.0 mi Calm Calm - N/A   Clear